Weather History for Meadville, PA

Change the Weather History Date:

Thursday, May 3, 2012

  Actual Average Record
Temperature  
Mean Temperature 74 °F -  
Max Temperature 86 °F 62 °F 86 °F (2012)
Min Temperature 64 °F 37 °F 25 °F (1986)
Cooling Degree Days 9    
Growing Degree Days 24 (Base 50)    
Moisture  
Dew Point 61 °F    
Average Humidity 64    
Maximum Humidity 90    
Minimum Humidity 41    
Precipitation  
Precipitation 0.00 in - - ()
Sea Level Pressure  
Sea Level Pressure 30.00 in    
Wind  
Wind Speed 5 mph (SW)    
Max Wind Speed 12 mph    
Max Gust Speed 21 mph    
Visibility 10 miles    
Events Rain    
Averages and records for this station are not official NWS values.
T = Trace of Precipitation, MM = Missing Value Source: NWS Daily Summary

Daily Weather History Graph

Daily Weather History Graph

Search for Another Location

Airport:

Trip Planner

Search our weather history database for the weather conditions in past years. The results will help you decide how hot, cold, wet, or windy it might be!

Date:

Astronomy

May. 03, 2012 Rise Set
Actual Time 6:14 AM EDT 8:21 PM EDT
Civil Twilight 5:43 AM EDT 8:52 PM EDT
Nautical Twilight 5:06 AM EDT 9:29 PM EDT
Astronomical Twilight 4:25 AM EDT 10:10 PM EDT
Moon 5:42 PM EDT (5/3) 4:19 AM EDT (5/3)
Length of Visible Light 15h 08m
Length of Day
14h 07m
Waxing Gibbous, 91% of the Moon is Illuminated
May 3
Waxing Gibbous
May 5
Full
May 12
Last Quarter
May 20
New
May 28
First Quarter

Hourly Weather History & Observations

Time (EDT) Temp. Heat Index Dew Point Humidity Pressure Visibility Wind Dir Wind Speed Gust Speed Precip Events Conditions
12:53 AM 71.1 °F - 61.0 °F 70% 30.01 in 10.0 mi WSW 4.6 mph - N/A   Clear
1:53 AM 70.0 °F - 61.0 °F 73% 30.00 in 10.0 mi SW 3.5 mph - N/A   Clear
2:53 AM 68.0 °F - 61.0 °F 78% 29.99 in 10.0 mi SW 4.6 mph - N/A   Clear
3:53 AM 69.1 °F - 61.0 °F 75% 30.01 in 10.0 mi SW 3.5 mph - N/A   Overcast
4:53 AM 66.9 °F - 61.0 °F 81% 30.01 in 10.0 mi WSW 3.5 mph - N/A   Clear
5:53 AM 64.9 °F - 61.0 °F 87% 30.02 in 10.0 mi SSW 4.6 mph - N/A   Clear
6:53 AM 64.0 °F - 61.0 °F 90% 30.05 in 10.0 mi South 4.6 mph - N/A   Clear
7:53 AM 66.9 °F - 62.1 °F 84% 30.07 in 10.0 mi SSW 5.8 mph - N/A   Clear
8:53 AM 71.1 °F - 63.0 °F 75% 30.07 in 10.0 mi SSW 3.5 mph - N/A   Clear
9:53 AM 73.9 °F - 64.0 °F 71% 30.06 in 10.0 mi South 4.6 mph - N/A   Clear
10:53 AM 78.1 °F - 63.0 °F 60% 30.06 in 10.0 mi SW 5.8 mph - N/A   Clear
11:53 AM 80.1 °F 81.9 °F 64.9 °F 60% 30.06 in 10.0 mi WSW 9.2 mph 17.3 mph N/A   Clear
12:53 PM 82.9 °F 84.4 °F 64.0 °F 53% 30.02 in 10.0 mi WSW 5.8 mph 16.1 mph N/A   Mostly Cloudy
1:53 PM 82.0 °F 83.4 °F 64.0 °F 54% 30.01 in 10.0 mi WNW 10.4 mph - N/A   Mostly Cloudy
2:53 PM 84.9 °F 85.4 °F 62.1 °F 46% 29.99 in 10.0 mi West 11.5 mph 16.1 mph N/A   Scattered Clouds
4:53 PM 84.9 °F 84.4 °F 59.0 °F 41% 29.96 in 10.0 mi SW 10.4 mph 20.7 mph N/A   Partly Cloudy
5:53 PM 82.9 °F 82.8 °F 59.0 °F 44% 29.96 in 10.0 mi WSW 9.2 mph 19.6 mph N/A   Partly Cloudy
6:53 PM 84.0 °F 83.5 °F 57.9 °F 41% 29.93 in 10.0 mi SW 6.9 mph 19.6 mph N/A   Clear
7:53 PM 81.0 °F 81.3 °F 59.0 °F 47% 29.92 in 10.0 mi SW 5.8 mph - N/A   Clear
8:53 PM 78.1 °F - 59.0 °F 52% 29.95 in 10.0 mi SW 3.5 mph - N/A   Clear
9:53 PM 75.9 °F - 60.1 °F 58% 29.97 in 10.0 mi SSW 4.6 mph - N/A   Scattered Clouds
10:53 PM 75.0 °F - 60.1 °F 60% 29.96 in 10.0 mi SSW 4.6 mph - N/A   Mostly Cloudy
11:53 PM 71.1 °F - 57.9 °F 63% 29.98 in 10.0 mi NNW 10.4 mph 17.3 mph 0.00 in Rain Light Rain